Lid_Strength_Index
2 2 2 2 2 2 2 1 1 1 1 3 4 5 6 7 8 8 8 8 8 9
2 2 2 1 1 1 1 1 1 1 2 4 5 7 8 9 9 8 9 10 10 11
2 1 1 1 2 2 1 1 2 3 3 5 7 7 9 10 8 8 9 11 12 12
2 2 2 1 1 1 1 1 2 3 5 6 7 8 8 9 8 10 11 12 12 13
2 2 2 2 1 1 1 2 2 4 6 7 7 8 9 9 10 10 13 12 13 13
2 2 2 2 1 1 2 2 3 5 7 7 8 8 9 10 11 12 13 12 13 13
3 2 2 2 2 2 2 3 5 6 7 8 9 11 12 13 13 13 13 12 12 12
2 2 2 2 2 3 4 5 6 8 9 11 11 12 13 13 13 13 13 12 11 11
2 2 2 2 3 3 5 7 8 9 10 12 12 13 13 13 13 13 13 13 13 11
2 3 2 2 3 6 7 8 10 11 12 14 14 14 14 13 15 15 14 14 14 13
3 3 3 5 6 8 8 10 12 13 13 14 14 14 14 14 16 15 15 14 14 14
3 3 3 6 7 9 10 11 13 13 14 15 16 15 15 15 15 15 15 15 14 13
2 3 5 7 9 9 10 12 13 15 16 15 16 15 14 14 14 15 15 14 12 12
4 5 7 8 10 11 12 13 14 15 16 16 15 15 14 14 15 15 14 14 13 12